Theta_e
306 307 306 307 307 307 307 305 303 305 308 310 312 312 312 316 317 317 318 318 321 325
304 303 302 302 302 306 300 302 300 301 301 303 304 307 310 311 311 312 313 313 313 316
303 302 300 300 299 301 298 299 299 299 299 300 300 301 302 303 307 308 310 311 311 311
302 301 300 299 299 298 297 298 298 298 298 299 299 303 302 299 301 301 304 306 308 309
301 303 302 298 298 297 297 297 298 298 298 298 298 299 302 302 303 302 303 304 305 306
300 300 298 298 297 297 297 297 298 298 298 300 300 298 297 299 300 302 302 303 303 304
299 299 298 298 298 297 296 296 295 296 297 299 299 299 299 300 298 300 300 302 303 304
300 300 299 299 299 298 297 297 297 297 296 295 297 300 297 298 300 299 300 301 302 303
302 303 299 298 298 298 299 297 297 297 296 294 297 301 302 302 300 300 300 300 301 303
302 303 299 304 303 301 302 300 296 297 298 299 295 300 301 302 300 300 300 301 301 302
302 302 299 299 301 297 294 295 295 298 303 303 301 301 300 301 300 301 302 303 302 301
300 299 298 297 296 294 293 294 296 300 302 302 301 301 299 299 300 301 301 303 303 302
300 298 297 296 295 293 295 295 297 299 298 303 301 300 298 298 297 295 299 301 302 303
300 299 298 296 293 294 294 295 296 295 296 301 302 299 298 298 297 296 299 300 300 302
Wind_Speed
6 4 4 5 4 3 3 2 5 6 6 6 6 5 5 3 4 4 3 4 3 3
5 6 5 6 5 5 4 3 5 5 5 6 6 6 7 5 6 6 4 4 3 3
4 5 5 5 5 5 4 5 5 6 6 6 6 6 6 5 7 8 6 5 6 4
4 4 4 4 4 4 4 5 5 5 6 6 5 7 6 5 5 5 6 6 8 8
4 3 3 4 3 2 2 3 4 4 5 4 5 5 7 7 5 5 6 6 7 7
3 3 2 3 2 2 2 3 3 4 3 4 3 3 4 5 5 5 5 5 6 6
4 3 2 1 0 1 1 2 2 2 3 4 4 5 5 4 5 5 5 4 5 6
6 4 2 2 3 3 2 2 2 1 2 3 3 3 4 5 4 5 6 6 6 6
7 6 6 5 5 4 5 3 3 4 3 3 3 6 7 5 3 4 5 7 6 6
6 7 6 5 4 5 4 3 5 5 5 5 4 6 5 5 3 4 7 7 5 6
7 7 6 6 5 5 2 4 5 6 6 6 4 7 5 4 3 4 5 6 4 4
7 7 6 6 6 4 3 4 5 4 6 6 4 6 6 4 3 3 3 3 4 4
7 7 7 7 6 4 4 5 4 4 4 5 4 5 7 4 1 4 2 3 3 7
8 8 7 6 4 4 5 4 3 3 5 4 4 3 6 6 1 2 3 3 3 4
Wind_Direction
74 73 74 68 69 66 58 26 4 12 13 4 357 346 346 336 342 359 319 328 347 268
52 56 65 58 57 50 32 17 26 31 26 10 4 357 352 349 344 344 337 321 304 272
73 63 54 57 53 55 35 29 33 31 32 25 15 8 4 356 345 339 332 326 315 297
87 81 72 70 59 45 36 31 36 33 31 25 19 15 9 359 357 347 331 327 319 322
141 107 85 76 64 59 56 22 31 39 42 25 22 3 4 355 343 340 339 329 327 313
141 127 121 87 66 33 20 17 16 2 356 350 355 358 350 343 336 332 324 327 330 335
176 186 191 156 118 67 20 355 351 348 339 343 342 350 345 339 330 327 327 333 333 331
178 187 207 256 297 318 301 282 289 276 314 320 315 310 327 331 335 326 322 317 316 310
173 172 199 222 247 268 284 309 308 290 274 304 301 319 329 342 330 325 316 315 315 309
174 179 193 206 216 230 250 267 280 275 263 258 242 279 292 319 344 318 306 299 291 311
177 185 193 207 210 227 247 257 255 261 259 254 239 243 240 283 317 314 315 350 31 15
180 187 188 203 216 216 209 238 237 260 273 241 219 232 202 249 304 327 3 13 7 15
180 180 196 196 212 217 212 217 235 264 313 274 254 202 182 182 200 312 320 290 17 4
184 185 197 187 186 213 214 225 232 292 293 279 260 223 186 201 257 260 286 302 308 338